Simultaneous Nadir Overpasses (SNOs) Predictions

Prediction of SNOs between AURA and NPP Satellite Orbit:

Table of predicted SNOs for the next 14.0 days since TLE Epoch: 10/23/2021
Index Date (AURA) Time (AURA) Lat,Lon (AURA) SZA (AURA ) Date (NPP) Time (NPP) Lat,Lon (NPP) SZA (NPP ) Distance(km) Time Diff (sec)
1 10/24/2021 02:52:10 -79.29,-147.69 76.42 10/24/2021 02:52:03 -79.30,-147.57 76.44 2.78 7
2 10/24/2021 03:41:30 79.51, 21.48 103.29 10/24/2021 03:42:41 79.51, 21.46 103.24 0.45 71
3 10/26/2021 18:19:15 79.10, 159.39 104.70 10/26/2021 18:18:22 79.11, 159.49 104.72 2.16 53
4 10/26/2021 19:08:36 -79.34, -31.43 75.61 10/26/2021 19:09:01 -79.34, -31.49 75.62 1.42 25
5 10/29/2021 10:35:40 79.15, -84.42 105.51 10/29/2021 10:35:19 79.15, -84.47 105.53 1.03 21
6 10/29/2021 11:24:59 -79.47, 85.30 74.91 10/29/2021 11:25:55 -79.48, 85.37 74.96 1.63 56
7 11/01/2021 02:02:46 -78.96,-137.31 73.42 11/01/2021 02:01:39 -78.96,-137.34 73.36 0.80 67
8 11/01/2021 02:52:02 79.35, 32.73 106.10 11/01/2021 02:52:12 79.36, 32.87 106.06 3.00 10
9 11/03/2021 18:19:11 -79.04, -20.96 72.69 11/03/2021 18:18:36 -79.03, -21.08 72.64 2.64 35



Historial Predications of SNOs between AURA and NPP
